7 * 24
多渠道服务支持
STARLINK-32551是美国SpaceX公司星链(Starlink)项目的低轨卫星,于2024年11月30日发射入轨,属于Starlink第二代卫星。该卫星运行在近地轨道,为全球尤其是偏远地区提供高速低延迟的宽带互联网接入服务。作为星链星座的一员,它助力缩小全球数字鸿沟,同时还可为军事、航空等领域提供通信支持,目前已稳定在轨运行超一年。
美国
(US)
| 数据来源 | 国际轨道数据 |
| 星历时间: | 2026-09-11T20:41:08+0800 14小时前 查看轨道信息 |
| 半长轴: | 6950.181km |
| 偏心率: | 0.0002455 |
| 轨道倾角: | 70.001° |
| 近地点辐角 | 268.429° |
| 升交点赤经 | 55.822° |
| 平近点角 | 91.658° |
| 近地点: | 570.337km |
| 远地点: | 573.751km |
| 周期: | 96.107分钟 |
| 每日圈数: | 14.983341 |